User: anonymous   Login
Location: Coupvray
(48.8929°N, 2.7967°E)
Time: 23:08:50
(UTC+00:00)
Language:

CZ-4C R/B - Orbit

View from above orbital plane
View from above orbital plane
View from above satellite
View from above satellite

Ground track
Ground track

The orbit data is extracted from the following two-line orbital elements,

1 36416U 10009D   20263.52991746 -.00000063 +00000-0 +21908-4 0  9990
2 36416 063.4239 308.0403 0503977 355.3148 004.3263 13.69572692527234
Epoch (UTC): 19 September 2020 12:43:04
Eccentricity: 0.0503977
inclination: 63.4239°
perigee height: 629 km
apogee height: 1373 km
right ascension of ascending node: 308.0403°
argument of perigee: 355.3148°
revolutions per day: 13.69572692
mean anomaly at epoch: 4.3263°
orbit number at epoch: 52723

The dashed part of the orbit path shows where the satellite is in the earth's shadow,  

DLR